Flag for U.S.A. Weather past 2 weeks in Green Bay, Wisconsin, U.S.A.

Now
66 °F

Clear.


Feels Like: 66 °F
Forecast: 66 / 83 °F
Wind: 5 mph from Southwest

Location: Austin Straubel International Airport

Current Time: Aug 2, 2015 at 1:40:51 AM

Latest Report: Aug 2, 2015 at 12:53 AM


Visibility: 10 mi

Pressure: 29.79 "Hg

Humidity: 70%

Dew point: 56 °F

Location of Green BayLocation

Historic Weather in Green Bay — Graph

°F

Green Bay temperature yesterday

Maximum temperature yesterday: 83 °F (at 3:53 PM)
Minimum temperature yesterday: 58 °F (at 4:53 AM)
Average temperature yesterday: 70 °F

Past Weeks' High & Low Weather Summary

 TemperatureHumidityPressure
High88 °F (Jul 28, 1:53 PM)96% (Jul 18, 4:00 AM)30.04 "Hg (Jul 18, 4:00 AM)
Low56 °F (Jul 22, 5:53 AM)31% (Jul 29, 3:53 PM)29.66 "Hg (Jul 20, 3:53 PM)
Average73 °F68%29.89 "Hg
* Reported Jul 17 11:53 PM — Aug 1 11:53 PM, Green Bay, Weather by CustomWeather, © 2015

Note: Actual official high and low records may vary slightly from our data, if they occured in-between our weather recording intervals... More about our weather records

Advertising

Green Bay weather history for previous 24 hours

 ConditionsComfort  
Time TempWeatherWind HumidityBarometerVisibility
11:53 PM
Sat, Aug 1
62 °FClear.3 mph80%29.80 "Hg10 mi
10:53 PM63 °FClear.5 mph78%29.81 "Hg10 mi
9:53 PM64 °FClear.6 mph81%29.82 "Hg10 mi
8:53 PM65 °FSunny.No wind81%29.83 "Hg10 mi
7:53 PM74 °FSunny.No wind56%29.83 "Hg10 mi
6:53 PM79 °FSunny.7 mph44%29.83 "Hg10 mi
5:53 PM81 °FSunny.9 mph35%29.85 "Hg10 mi
4:53 PM82 °FPassing clouds.13 mph34%29.86 "Hg10 mi
3:53 PM83 °FScattered clouds.10 mph33%29.87 "Hg10 mi
2:53 PM82 °FSunny.14 mph34%29.88 "Hg10 mi
1:53 PM81 °FPassing clouds.13 mph38%29.89 "Hg10 mi
12:53 PM80 °FSunny.13 mph41%29.90 "Hg10 mi
11:53 AM78 °FSunny.13 mph45%29.91 "Hg10 mi
10:53 AM76 °FSunny.14 mph47%29.91 "Hg10 mi
9:53 AM74 °FSunny.13 mph53%29.92 "Hg10 mi
8:53 AM70 °FSunny.9 mph61%29.92 "Hg10 mi
7:53 AM66 °FSunny.10 mph68%29.92 "Hg10 mi
6:53 AM61 °FSunny.7 mph78%29.92 "Hg10 mi
5:53 AM58 °FClear.8 mph84%29.91 "Hg10 mi
4:53 AM58 °FClear.8 mph87%29.91 "Hg10 mi
3:53 AM60 °FClear.10 mph83%29.91 "Hg10 mi
2:53 AM60 °FClear.7 mph83%29.91 "Hg10 mi
1:53 AM62 °FPassing clouds.6 mph80%29.91 "Hg10 mi
Weather by CustomWeather, © 2015

See weather overviewHow to use our weather pages